Regional Weather Roundup
Issued by NWS Midland/Odessa, TX

Home | Current Version | Previous Version | Text Only | Print | Product List | Glossary On
Versions: 1 2 3 4 5 6 7 8 9 10 11 12 13 14 15 16 17 18 19 20 21 22 23 24 25 26 27 28 29 30 31 32 33 34 35 36 37 38 39 40 41 42 43 44 45 46 47 48 49 50
000
ASUS44 KMAF 261410
RWRMAF
MIDLAND AREA WEATHER ROUNDUP
NATIONAL WEATHER SERVICE MIDLAND TX
900 AM CDT TUE MAY 26 2015

...IN SOUTHWEST TEXAS AND SOUTHEAST NEW MEXICO...

CITY           SKY/WX    TMP DP  RH WIND       PRES   REMARKS
ALPINE         SUNNY     71  35  26 CALM      30.15S
ANDREWS        FAIR      70  47  44 W6        30.03R
ARTESIA        SUNNY     68  41  37 MISG      30.05R
BIG SPRING     CLOUDY    67  61  79 SW7       30.03R
CARLSBAD       SUNNY     66  44  45 NW3       30.02S
DRYDEN           N/A     74  69  85 VRB3      29.99R
FORT STOCKTON  SUNNY     69  36  29 S7        30.03R
GUAD PASS      SUNNY     60  31  33 SW7       30.15R
HOBBS          SUNNY     63  46  55 CALM      30.05R
MARFA          SUNNY     64  39  39 NW3       30.14S
MIDLAND AIRPK  MOSUNNY   71  61  70 SW8       30.03R
MIDLAND INTL   SUNNY     70  61  73 SW10      30.02R
ODESSA         SUNNY     70  56  61 SW8       30.03R
PECOS          SUNNY     61  47  59 CALM      30.02R
PRESIDIO       FAIR      67  24  19 CALM      30.03R
SEMINOLE       SUNNY     65  49  55 W5        30.04R
SNYDER         SUNNY     65  60  84 S5        30.01R
WINK           SUNNY     67  46  47 E6        30.00R
$$
...OTHER STATIONS IN TEXAS...

CITY           SKY/WX    TMP DP  RH WIND       PRES   REMARKS
ABILENE        SUNNY     72  65  78 S12       29.97S
AMARILLO       SUNNY     58  52  80 S7        29.97S
AUSTIN         CLOUDY    69  69 100 CALM      30.01R FOG
BROWNSVILLE    CLOUDY    81  77  88 S10       29.95R
CORPUS CHRISTI PTSUNNY   82  76  81 SE20      29.96R
DALLAS FTW     CLOUDY    63  63 100 SW5       29.99R
DEL RIO        CLOUDY    79  74  84 SE12      29.95R
EL PASO        MOSUNNY   66  40  38 CALM      30.08R
HOUSTON INT    MOSUNNY   74  69  85 S7        30.01S
LUBBOCK        MOSUNNY   65  52  62 SW12      29.98R
SAN ANGELO     PTSUNNY   74  69  85 S15G23    29.99R
SAN ANTONIO    CLOUDY    74  70  87 E8        30.01R
WACO           CLOUDY    69  66  90 S12       29.99S
WICHITA FALLS  NOT AVBL
$$
...OTHER LOCATIONS IN NEW MEXICO...

CITY           SKY/WX    TMP DP  RH WIND       PRES   REMARKS
ALAMAGORDO     SUNNY     63  39  42 CALM      30.10R
ALBUQUERQUE    MOSUNNY   54  45  71 E5        30.15S
CANNON AFB     SUNNY     61  51  69 N10       30.02R
CLOVIS         SUNNY     59  50  72 N15       30.03R
HOLLOMAN AFB   SUNNY     68  40  35 NE7       30.08R
ROSWELL        SUNNY     66  44  45 S7        30.03R
RUIDOSO        SUNNY     55  36  47 NW9       30.21R
SANTA FE       SUNNY     54  42  64 N9        30.15R
TRUTH OR CONSE SUNNY     63  40  42 CALM      30.11R
TUCUMCARI      SUNNY     62  52  69 N7        30.02R
$$


USA.gov is the U.S. government's official web portal to all federal, state and local government web resources and services.